Time,TemperatureF,DewpointF,PressureIn,WindDirection,WindDirectionDegrees,WindSpeedMPH,WindSpeedGustMPH,Humidity,HourlyPrecipIn,Conditions,Clouds,dailyrainin,SoftwareType,DateUTC
2013-06-02 00:00:00,59.7,57.7,29.64,ENE,71,0.0,14.0,93,0.00,,,0.16,Wunderground v.1.15,2013-06-02 04:00:00,
2013-06-02 00:05:00,59.7,57.7,29.64,ENE,71,0.0,14.0,93,0.00,,,0.16,Wunderground v.1.15,2013-06-02 04:05:00,
2013-06-02 00:10:00,59.8,57.8,29.64,ENE,71,0.0,14.0,93,0.00,,,0.16,Wunderground v.1.15,2013-06-02 04:10:00,
2013-06-02 00:15:00,59.7,57.7,29.64,ENE,71,0.0,14.0,93,0.00,,,0.00,Wunderground v.1.15,2013-06-02 04:15:00,
2013-06-02 00:20:00,59.6,57.6,29.64,ENE,71,0.0,14.0,93,0.00,,,0.01,Wunderground v.1.15,2013-06-02 04:20:00,
2013-06-02 00:25:00,59.5,57.5,29.64,ENE,71,0.0,14.0,93,0.16,,,0.02,Wunderground v.1.15,2013-06-02 04:25:00,
2013-06-02 00:30:00,59.3,57.6,29.67,ESE,107,0.0,14.0,94,0.07,,,0.03,Wunderground v.1.15,2013-06-02 04:30:00,
2013-06-02 00:35:00,59.0,57.3,29.66,SW,234,0.0,14.0,94,0.93,,,0.12,Wunderground v.1.15,2013-06-02 04:35:00,
2013-06-02 00:40:00,58.5,56.8,29.66,WSW,237,1.0,1.0,94,0.24,,,0.14,Wunderground v.1.15,2013-06-02 04:40:00,
2013-06-02 00:45:00,58.4,57.0,29.65,WSW,237,1.0,14.0,95,0.47,,,0.16,Wunderground v.1.15,2013-06-02 04:45:00,
2013-06-02 00:50:00,58.4,57.3,29.65,WSW,238,0.0,14.0,96,0.24,,,0.17,Wunderground v.1.15,2013-06-02 04:50:00,
2013-06-02 00:55:00,58.4,57.3,29.65,WSW,237,0.0,14.0,96,0.08,,,0.17,Wunderground v.1.15,2013-06-02 04:55:00,
2013-06-02 01:05:00,58.5,57.4,29.65,WSW,237,0.0,14.0,96,0.09,,,0.19,Wunderground v.1.15,2013-06-02 05:05:00,
2013-06-02 01:10:00,58.6,57.5,29.65,WSW,238,0.0,14.0,96,0.09,,,0.20,Wunderground v.1.15,2013-06-02 05:10:00,
2013-06-02 01:15:00,58.5,57.4,29.64,WSW,238,0.0,14.0,96,0.09,,,0.20,Wunderground v.1.15,2013-06-02 05:15:00,
2013-06-02 01:20:00,58.4,57.3,29.64,SW,218,0.0,14.0,96,0.06,,,0.20,Wunderground v.1.15,2013-06-02 05:20:00,
2013-06-02 01:25:00,58.3,57.5,29.64,SW,218,0.0,14.0,97,0.04,,,0.20,Wunderground v.1.15,2013-06-02 05:25:00,
2013-06-02 01:35:00,58.1,57.3,29.64,SW,218,0.0,14.0,97,0.00,,,0.20,Wunderground v.1.15,2013-06-02 05:35:00,
2013-06-02 01:40:00,58.0,57.2,29.63,SW,218,0.0,14.0,97,0.00,,,0.20,Wunderground v.1.15,2013-06-02 05:40:00,
2013-06-02 01:45:00,58.0,57.2,29.64,ESE,123,0.0,14.0,97,0.00,,,0.20,Wunderground v.1.15,2013-06-02 05:45:00,
2013-06-02 01:50:00,58.0,57.2,29.64,SE,125,0.0,14.0,97,0.00,,,0.20,Wunderground v.1.15,2013-06-02 05:50:00,
2013-06-02 01:55:00,57.9,57.1,29.64,SE,144,0.0,14.0,97,0.00,,,0.20,Wunderground v.1.15,2013-06-02 05:55:00,
2013-06-02 02:00:00,57.9,57.1,29.65,SE,144,0.0,14.0,97,0.00,,,0.20,Wunderground v.1.15,2013-06-02 06:00:00,
2013-06-02 02:10:00,57.9,57.1,29.63,SE,144,0.0,14.0,97,0.00,,,0.21,Wunderground v.1.15,2013-06-02 06:10:00,
2013-06-02 02:20:00,57.9,57.1,29.62,SE,144,0.0,14.0,97,0.00,,,0.21,Wunderground v.1.15,2013-06-02 06:20:00,
2013-06-02 02:25:00,57.9,57.1,29.61,SE,144,0.0,14.0,97,0.04,,,0.22,Wunderground v.1.15,2013-06-02 06:25:00,
2013-06-02 02:30:00,57.9,57.1,29.61,SE,144,0.0,14.0,97,0.04,,,0.22,Wunderground v.1.15,2013-06-02 06:30:00,
2013-06-02 02:40:00,54.9,53.5,29.61,WNW,300,3.0,3.0,95,0.04,,,0.22,Wunderground v.1.15,2013-06-02 06:40:00,
2013-06-02 02:45:00,54.6,53.5,29.61,WNW,300,2.0,14.0,96,0.00,,,0.23,Wunderground v.1.15,2013-06-02 06:45:00,
2013-06-02 02:50:00,54.1,53.0,29.61,WNW,300,0.0,14.0,96,0.00,,,0.23,Wunderground v.1.15,2013-06-02 06:50:00,
2013-06-02 02:55:00,53.8,53.0,29.61,WNW,300,0.0,14.0,97,0.00,,,0.23,Wunderground v.1.15,2013-06-02 06:55:00,
2013-06-02 03:00:00,53.7,52.9,29.61,NW,304,0.0,14.0,97,0.00,,,0.23,Wunderground v.1.15,2013-06-02 07:00:00,
2013-06-02 03:05:00,53.8,53.0,29.61,NW,304,0.0,14.0,97,0.00,,,0.23,Wunderground v.1.15,2013-06-02 07:05:00,
2013-06-02 03:15:00,53.0,52.2,29.61,West,264,2.0,14.0,97,0.00,,,0.23,Wunderground v.1.15,2013-06-02 07:15:00,
2013-06-02 03:20:00,50.9,49.5,29.62,West,267,5.0,14.0,95,0.00,,,0.23,Wunderground v.1.15,2013-06-02 07:20:00,
2013-06-02 03:25:00,49.7,48.6,29.62,WNW,290,7.0,14.0,96,0.00,,,0.23,Wunderground v.1.15,2013-06-02 07:25:00,
2013-06-02 03:30:00,48.9,47.8,29.63,West,259,7.0,14.0,96,0.00,,,0.23,Wunderground v.1.15,2013-06-02 07:30:00,
2013-06-02 03:35:00,48.2,47.1,29.65,WSW,249,9.0,14.0,96,0.00,,,0.23,Wunderground v.1.15,2013-06-02 07:35:00,
2013-06-02 03:45:00,46.5,45.4,29.64,West,279,11.0,14.0,96,0.00,,,0.23,Wunderground v.1.15,2013-06-02 07:45:00,
2013-06-02 03:50:00,46.5,45.7,29.65,West,269,8.0,14.0,97,0.00,,,0.23,Wunderground v.1.15,2013-06-02 07:50:00,
2013-06-02 03:55:00,46.5,45.7,29.65,West,277,7.0,14.0,97,0.00,,,0.23,Wunderground v.1.15,2013-06-02 07:55:00,
2013-06-02 04:00:00,46.3,45.5,29.65,West,275,7.0,14.0,97,0.00,,,0.23,Wunderground v.1.15,2013-06-02 08:00:00,
2013-06-02 04:05:00,46.2,45.4,29.65,West,267,7.0,14.0,97,0.00,,,0.23,Wunderground v.1.15,2013-06-02 08:05:00,
2013-06-02 04:10:00,46.0,45.2,29.65,West,260,7.0,14.0,97,0.00,,,0.23,Wunderground v.1.15,2013-06-02 08:10:00,
2013-06-02 04:20:00,45.6,44.8,29.66,West,281,9.0,9.0,97,0.00,,,0.23,Wunderground v.1.15,2013-06-02 08:20:00,
2013-06-02 04:25:00,45.5,44.7,29.66,West,271,8.0,14.0,97,0.00,,,0.23,Wunderground v.1.15,2013-06-02 08:25:00,
2013-06-02 04:30:00,45.4,44.6,29.66,West,279,9.0,14.0,97,0.00,,,0.23,Wunderground v.1.15,2013-06-02 08:30:00,
2013-06-02 04:35:00,45.3,44.5,29.66,West,278,9.0,14.0,97,0.00,,,0.23,Wunderground v.1.15,2013-06-02 08:35:00,
2013-06-02 04:40:00,45.3,44.5,29.67,West,267,9.0,14.0,97,0.00,,,0.23,Wunderground v.1.15,2013-06-02 08:40:00,
2013-06-02 04:50:00,44.9,44.1,29.67,West,272,9.0,14.0,97,0.00,,,0.23,Wunderground v.1.15,2013-06-02 08:50:00,
2013-06-02 04:55:00,44.9,44.1,29.67,West,261,9.0,14.0,97,0.00,,,0.23,Wunderground v.1.15,2013-06-02 08:55:00,
2013-06-02 05:00:00,44.8,44.0,29.67,WNW,282,8.0,14.0,97,0.00,,,0.23,Wunderground v.1.15,2013-06-02 09:00:00,
2013-06-02 05:05:00,44.8,44.0,29.67,West,281,7.0,7.0,97,0.00,,,0.23,Wunderground v.1.15,2013-06-02 09:05:00,
2013-06-02 05:10:00,45.0,44.2,29.67,WNW,284,6.0,6.0,97,0.00,,,0.23,Wunderground v.1.15,2013-06-02 09:10:00,
2013-06-02 05:20:00,44.8,44.0,29.68,West,275,6.0,14.0,97,0.00,,,0.24,Wunderground v.1.15,2013-06-02 09:20:00,
2013-06-02 05:25:00,44.9,44.1,29.68,West,271,7.0,14.0,97,0.00,,,0.24,Wunderground v.1.15,2013-06-02 09:25:00,
2013-06-02 05:30:00,44.8,44.0,29.68,West,278,7.0,7.0,97,0.00,,,0.24,Wunderground v.1.15,2013-06-02 09:30:00,
2013-06-02 05:35:00,44.5,43.7,29.68,West,261,7.0,14.0,97,0.00,,,0.24,Wunderground v.1.15,2013-06-02 09:35:00,
2013-06-02 05:40:00,44.4,43.6,29.69,West,271,7.0,14.0,97,0.00,,,0.24,Wunderground v.1.15,2013-06-02 09:40:00,
2013-06-02 05:45:00,44.3,43.5,29.69,West,269,7.0,14.0,97,0.00,,,0.25,Wunderground v.1.15,2013-06-02 09:45:00,
2013-06-02 05:55:00,44.0,43.2,29.69,West,271,8.0,14.0,97,0.00,,,0.25,Wunderground v.1.15,2013-06-02 09:55:00,
2013-06-02 06:00:00,43.9,43.1,29.70,West,264,8.0,8.0,97,0.00,,,0.25,Wunderground v.1.15,2013-06-02 10:00:00,
2013-06-02 06:05:00,44.0,43.2,29.70,West,271,8.0,14.0,97,0.00,,,0.26,Wunderground v.1.15,2013-06-02 10:05:00,
2013-06-02 06:10:00,43.8,43.0,29.70,West,271,8.0,14.0,97,0.00,,,0.26,Wunderground v.1.15,2013-06-02 10:10:00,
2013-06-02 06:20:00,43.8,43.0,29.72,West,261,8.0,14.0,97,0.05,,,0.27,Wunderground v.1.15,2013-06-02 10:20:00,
2013-06-02 06:25:00,43.8,43.0,29.72,West,262,8.0,14.0,97,0.05,,,0.27,Wunderground v.1.15,2013-06-02 10:25:00,
2013-06-02 06:30:00,43.5,42.7,29.72,West,265,8.0,14.0,97,0.04,,,0.27,Wunderground v.1.15,2013-06-02 10:30:00,
2013-06-02 06:35:00,43.7,42.9,29.73,West,267,9.0,14.0,97,0.00,,,0.27,Wunderground v.1.15,2013-06-02 10:35:00,
2013-06-02 06:40:00,43.6,42.8,29.73,West,259,9.0,14.0,97,0.00,,,0.28,Wunderground v.1.15,2013-06-02 10:40:00,
2013-06-02 06:45:00,43.5,42.7,29.73,West,264,10.0,14.0,97,0.07,,,0.29,Wunderground v.1.15,2013-06-02 10:45:00,
2013-06-02 06:50:00,43.5,42.7,29.73,WSW,249,10.0,14.0,97,0.07,,,0.29,Wunderground v.1.15,2013-06-02 10:50:00,
2013-06-02 07:00:00,43.5,42.7,29.73,West,262,9.0,14.0,97,0.06,,,0.30,Wunderground v.1.15,2013-06-02 11:00:00,
2013-06-02 07:05:00,43.6,42.8,29.73,West,275,9.0,14.0,97,0.09,,,0.31,Wunderground v.1.15,2013-06-02 11:05:00,
2013-06-02 07:10:00,43.5,42.7,29.74,West,259,9.0,14.0,97,0.08,,,0.32,Wunderground v.1.15,2013-06-02 11:10:00,
2013-06-02 07:15:00,43.6,42.8,29.74,West,260,9.0,14.0,97,0.08,,,0.32,Wunderground v.1.15,2013-06-02 11:15:00,
2013-06-02 07:20:00,43.4,42.6,29.74,West,260,10.0,14.0,97,0.05,,,0.32,Wunderground v.1.15,2013-06-02 11:20:00,
2013-06-02 07:30:00,43.4,42.6,29.75,WSW,254,11.0,11.0,97,0.00,,,0.32,Wunderground v.1.15,2013-06-02 11:30:00,
2013-06-02 07:35:00,43.5,42.7,29.75,West,263,11.0,14.0,97,0.00,,,0.32,Wunderground v.1.15,2013-06-02 11:35:00,
2013-06-02 07:40:00,43.6,42.8,29.75,West,260,11.0,14.0,97,0.00,,,0.32,Wunderground v.1.15,2013-06-02 11:40:00,
2013-06-02 07:45:00,43.5,42.7,29.75,West,269,11.0,14.0,97,0.00,,,0.32,Wunderground v.1.15,2013-06-02 11:45:00,
2013-06-02 07:55:00,43.2,42.4,29.76,WSW,256,12.0,14.0,97,0.00,,,0.32,Wunderground v.1.15,2013-06-02 11:55:00,
2013-06-02 08:05:00,43.2,42.4,29.77,West,265,12.0,14.0,97,0.00,,,0.32,Wunderground v.1.15,2013-06-02 12:05:00,
2013-06-02 08:10:00,43.1,42.3,29.77,West,263,12.0,14.0,97,0.00,,,0.32,Wunderground v.1.15,2013-06-02 12:10:00,
2013-06-02 08:15:00,43.1,42.3,29.78,West,271,13.0,14.0,97,0.00,,,0.32,Wunderground v.1.15,2013-06-02 12:15:00,
2013-06-02 08:20:00,43.0,42.2,29.78,WSW,252,13.0,14.0,97,0.00,,,0.32,Wunderground v.1.15,2013-06-02 12:20:00,
2013-06-02 08:25:00,42.9,42.1,29.78,West,261,13.0,14.0,97,0.00,,,0.32,Wunderground v.1.15,2013-06-02 12:25:00,
2013-06-02 08:35:00,42.7,41.9,29.79,WSW,257,13.0,14.0,97,0.00,,,0.32,Wunderground v.1.15,2013-06-02 12:35:00,
2013-06-02 08:40:00,42.7,41.9,29.79,West,262,13.0,15.0,97,0.00,,,0.32,Wunderground v.1.15,2013-06-02 12:40:00,
2013-06-02 08:45:00,42.7,41.9,29.80,West,263,13.0,15.0,97,0.00,,,0.32,Wunderground v.1.15,2013-06-02 12:45:00,
2013-06-02 08:50:00,42.9,42.1,29.80,West,274,12.0,15.0,97,0.00,,,0.32,Wunderground v.1.15,2013-06-02 12:50:00,
2013-06-02 08:55:00,42.6,41.8,29.80,WSW,249,12.0,15.0,97,0.00,,,0.32,Wunderground v.1.15,2013-06-02 12:55:00,
2013-06-02 09:00:00,42.5,41.7,29.80,WSW,253,13.0,13.0,97,0.00,,,0.32,Wunderground v.1.15,2013-06-02 13:00:00,
2013-06-02 09:10:00,42.4,41.6,29.81,West,265,13.0,16.0,97,0.00,,,0.32,Wunderground v.1.15,2013-06-02 13:10:00,
2013-06-02 09:15:00,42.6,41.8,29.81,West,262,13.0,16.0,97,0.00,,,0.32,Wunderground v.1.15,2013-06-02 13:15:00,
2013-06-02 09:20:00,42.7,41.9,29.81,West,261,14.0,14.0,97,0.00,,,0.32,Wunderground v.1.15,2013-06-02 13:20:00,
2013-06-02 09:30:00,42.6,41.8,29.82,West,268,14.0,16.0,97,0.00,,,0.32,Wunderground v.1.15,2013-06-02 13:30:00,
2013-06-02 09:40:00,42.8,42.0,29.82,WSW,253,14.0,14.0,97,0.00,,,0.32,Wunderground v.1.15,2013-06-02 13:40:00,
2013-06-02 09:45:00,42.7,41.6,29.83,West,263,14.0,16.0,96,0.00,,,0.32,Wunderground v.1.15,2013-06-02 13:45:00,
2013-06-02 09:50:00,42.6,41.5,29.83,West,269,15.0,15.0,96,0.00,,,0.32,Wunderground v.1.15,2013-06-02 13:50:00,
2013-06-02 10:00:00,42.7,41.4,29.83,West,259,13.0,14.0,95,0.00,,,0.32,Wunderground v.1.15,2013-06-02 14:00:00,
2013-06-02 10:05:00,42.8,41.5,29.84,West,266,14.0,15.0,95,0.00,,,0.32,Wunderground v.1.15,2013-06-02 14:05:00,
2013-06-02 10:15:00,42.8,41.5,29.84,WSW,247,14.0,16.0,95,0.00,,,0.32,Wunderground v.1.15,2013-06-02 14:15:00,
2013-06-02 10:20:00,42.6,41.3,29.84,West,263,14.0,14.0,95,0.00,,,0.32,Wunderground v.1.15,2013-06-02 14:20:00,
2013-06-02 10:25:00,42.6,41.0,29.84,West,267,14.0,14.0,94,0.00,,,0.32,Wunderground v.1.15,2013-06-02 14:25:00,
2013-06-02 10:30:00,42.5,40.9,29.84,West,271,13.0,14.0,94,0.00,,,0.32,Wunderground v.1.15,2013-06-02 14:30:00,
2013-06-02 10:40:00,42.8,41.2,29.85,WSW,248,14.0,14.0,94,0.00,,,0.32,Wunderground v.1.15,2013-06-02 14:40:00,
2013-06-02 10:45:00,42.8,41.2,29.85,West,263,14.0,15.0,94,0.00,,,0.32,Wunderground v.1.15,2013-06-02 14:45:00,
2013-06-02 10:50:00,42.9,41.3,29.86,West,268,13.0,13.0,94,0.00,,,0.32,Wunderground v.1.15,2013-06-02 14:50:00,
2013-06-02 10:55:00,42.8,41.2,29.86,WSW,254,13.0,14.0,94,0.00,,,0.32,Wunderground v.1.15,2013-06-02 14:55:00,
2013-06-02 11:00:00,42.8,41.2,29.86,West,263,13.0,13.0,94,0.00,,,0.32,Wunderground v.1.15,2013-06-02 15:00:00,
2013-06-02 11:10:00,42.8,40.9,29.87,WSW,254,13.0,14.0,93,0.00,,,0.32,Wunderground v.1.15,2013-06-02 15:10:00,
2013-06-02 11:20:00,42.8,40.9,29.88,West,264,13.0,14.0,93,0.00,,,0.32,Wunderground v.1.15,2013-06-02 15:20:00,
2013-06-02 11:25:00,42.7,40.8,29.87,WSW,254,13.0,15.0,93,0.00,,,0.32,Wunderground v.1.15,2013-06-02 15:25:00,
2013-06-02 11:30:00,42.9,41.0,29.88,WSW,257,13.0,14.0,93,0.00,,,0.32,Wunderground v.1.15,2013-06-02 15:30:00,
2013-06-02 11:40:00,42.8,40.6,29.89,West,268,14.0,14.0,92,0.00,,,0.32,Wunderground v.1.15,2013-06-02 15:40:00,
2013-06-02 11:45:00,43.0,41.1,29.89,WSW,257,14.0,14.0,93,0.00,,,0.32,Wunderground v.1.15,2013-06-02 15:45:00,
2013-06-02 11:50:00,43.1,41.2,29.89,WSW,254,13.0,14.0,93,0.00,,,0.32,Wunderground v.1.15,2013-06-02 15:50:00,
2013-06-02 11:55:00,43.1,40.9,29.90,West,264,13.0,14.0,92,0.00,,,0.32,Wunderground v.1.15,2013-06-02 15:55:00,
2013-06-02 12:00:00,43.0,40.6,29.90,WSW,250,13.0,13.0,91,0.00,,,0.32,Wunderground v.1.15,2013-06-02 16:00:00,
2013-06-02 12:10:00,43.3,41.1,29.90,West,264,14.0,14.0,92,0.00,,,0.32,Wunderground v.1.15,2013-06-02 16:10:00,
2013-06-02 12:15:00,43.4,41.2,29.90,West,259,13.0,14.0,92,0.00,,,0.32,Wunderground v.1.15,2013-06-02 16:15:00,
2013-06-02 12:20:00,43.1,40.7,29.90,West,271,13.0,15.0,91,0.00,,,0.32,Wunderground v.1.15,2013-06-02 16:20:00,
2013-06-02 12:25:00,43.3,41.1,29.91,West,260,13.0,15.0,92,0.00,,,0.32,Wunderground v.1.15,2013-06-02 16:25:00,
2013-06-02 12:30:00,43.3,41.1,29.91,West,263,13.0,16.0,92,0.00,,,0.32,Wunderground v.1.15,2013-06-02 16:30:00,
2013-06-02 12:35:00,43.3,41.1,29.91,West,263,12.0,16.0,92,0.00,,,0.32,Wunderground v.1.15,2013-06-02 16:35:00,
2013-06-02 12:45:00,43.0,41.1,29.92,West,265,13.0,14.0,93,0.00,,,0.32,Wunderground v.1.15,2013-06-02 16:45:00,
2013-06-02 12:50:00,43.1,41.2,29.92,West,267,13.0,13.0,93,0.00,,,0.32,Wunderground v.1.15,2013-06-02 16:50:00,
2013-06-02 12:55:00,43.3,41.7,29.92,West,264,12.0,14.0,94,0.00,,,0.32,Wunderground v.1.15,2013-06-02 16:55:00,
2013-06-02 13:00:00,43.1,41.2,29.92,West,268,12.0,14.0,93,0.00,,,0.32,Wunderground v.1.15,2013-06-02 17:00:00,
2013-06-02 13:05:00,42.8,40.6,29.92,WSW,254,12.0,14.0,92,0.00,,,0.32,Wunderground v.1.15,2013-06-02 17:05:00,
2013-06-02 13:15:00,43.1,40.9,29.93,West,260,12.0,15.0,92,0.00,,,0.32,Wunderground v.1.15,2013-06-02 17:15:00,
2013-06-02 13:20:00,43.3,40.8,29.92,WSW,250,12.0,12.0,91,0.00,,,0.32,Wunderground v.1.15,2013-06-02 17:20:00,
2013-06-02 13:25:00,43.3,40.8,29.93,West,259,12.0,14.0,91,0.00,,,0.32,Wunderground v.1.15,2013-06-02 17:25:00,
2013-06-02 13:30:00,43.3,40.8,29.93,West,266,12.0,14.0,91,0.00,,,0.32,Wunderground v.1.15,2013-06-02 17:30:00,
2013-06-02 13:35:00,43.4,40.9,29.93,West,271,12.0,14.0,91,0.00,,,0.32,Wunderground v.1.15,2013-06-02 17:35:00,
2013-06-02 13:40:00,43.4,40.9,29.93,West,269,12.0,12.0,91,0.00,,,0.32,Wunderground v.1.15,2013-06-02 17:40:00,
2013-06-02 13:50:00,43.4,40.7,29.94,West,267,12.0,12.0,90,0.00,,,0.32,Wunderground v.1.15,2013-06-02 17:50:00,
2013-06-02 13:55:00,43.6,40.9,29.94,West,261,12.0,14.0,90,0.00,,,0.32,Wunderground v.1.15,2013-06-02 17:55:00,
2013-06-02 14:00:00,43.7,41.0,29.94,West,260,12.0,14.0,90,0.00,,,0.32,Wunderground v.1.15,2013-06-02 18:00:00,
2013-06-02 14:05:00,43.6,40.6,29.94,WSW,257,12.0,14.0,89,0.00,,,0.32,Wunderground v.1.15,2013-06-02 18:05:00,
2013-06-02 14:10:00,43.7,41.0,29.95,WSW,250,12.0,12.0,90,0.00,,,0.32,Wunderground v.1.15,2013-06-02 18:10:00,
2013-06-02 14:20:00,43.9,40.9,29.95,WSW,258,11.0,11.0,89,0.00,,,0.32,Wunderground v.1.15,2013-06-02 18:20:00,
2013-06-02 14:25:00,44.0,41.0,29.96,WSW,247,11.0,12.0,89,0.00,,,0.32,Wunderground v.1.15,2013-06-02 18:25:00,
2013-06-02 14:30:00,43.9,40.9,29.96,WSW,256,11.0,14.0,89,0.00,,,0.32,Wunderground v.1.15,2013-06-02 18:30:00,
2013-06-02 14:35:00,44.0,41.3,29.96,WSW,248,12.0,14.0,90,0.00,,,0.32,Wunderground v.1.15,2013-06-02 18:35:00,
2013-06-02 14:40:00,44.0,40.7,29.97,West,263,12.0,12.0,88,0.00,,,0.32,Wunderground v.1.15,2013-06-02 18:40:00,
2013-06-02 14:45:00,44.2,41.2,29.97,WSW,245,12.0,13.0,89,0.00,,,0.32,Wunderground v.1.15,2013-06-02 18:45:00,
2013-06-02 14:55:00,44.3,41.0,29.97,West,266,11.0,13.0,88,0.00,,,0.32,Wunderground v.1.15,2013-06-02 18:55:00,
2013-06-02 15:00:00,44.6,41.6,29.98,WSW,256,11.0,14.0,89,0.00,,,0.32,Wunderground v.1.15,2013-06-02 19:00:00,
2013-06-02 15:05:00,44.7,41.4,29.98,West,264,12.0,14.0,88,0.00,,,0.32,Wunderground v.1.15,2013-06-02 19:05:00,
2013-06-02 15:10:00,44.8,41.2,29.98,West,263,12.0,14.0,87,0.00,,,0.32,Wunderground v.1.15,2013-06-02 19:10:00,
2013-06-02 15:15:00,44.7,41.1,29.99,West,264,13.0,14.0,87,0.00,,,0.32,Wunderground v.1.15,2013-06-02 19:15:00,
2013-06-02 15:25:00,44.7,41.1,29.99,WSW,257,12.0,14.0,87,0.00,,,0.32,Wunderground v.1.15,2013-06-02 19:25:00,
2013-06-02 15:30:00,44.7,41.1,29.99,West,263,13.0,13.0,87,0.00,,,0.32,Wunderground v.1.15,2013-06-02 19:30:00,
2013-06-02 15:35:00,44.9,41.3,29.99,West,259,13.0,14.0,87,0.00,,,0.32,Wunderground v.1.15,2013-06-02 19:35:00,
2013-06-02 15:40:00,45.0,41.4,29.99,West,268,12.0,16.0,87,0.00,,,0.32,Wunderground v.1.15,2013-06-02 19:40:00,
2013-06-02 15:45:00,45.0,41.4,29.99,West,263,12.0,16.0,87,0.00,,,0.32,Wunderground v.1.15,2013-06-02 19:45:00,
2013-06-02 15:50:00,45.1,41.5,29.99,WSW,252,12.0,12.0,87,0.00,,,0.32,Wunderground v.1.15,2013-06-02 19:50:00,
2013-06-02 16:00:00,45.1,41.2,29.99,West,261,11.0,11.0,86,0.00,,,0.32,Wunderground v.1.15,2013-06-02 20:00:00,
2013-06-02 16:05:00,45.0,41.1,29.99,West,261,11.0,14.0,86,0.00,,,0.32,Wunderground v.1.15,2013-06-02 20:05:00,
2013-06-02 16:10:00,45.4,41.8,29.99,West,275,11.0,11.0,87,0.00,,,0.32,Wunderground v.1.15,2013-06-02 20:10:00,
2013-06-02 16:15:00,45.4,41.5,30.00,West,268,10.0,14.0,86,0.00,,,0.32,Wunderground v.1.15,2013-06-02 20:15:00,
2013-06-02 16:20:00,45.2,41.3,30.00,West,271,11.0,14.0,86,0.00,,,0.32,Wunderground v.1.15,2013-06-02 20:20:00,
2013-06-02 16:30:00,45.2,41.3,30.00,West,269,10.0,10.0,86,0.00,,,0.32,Wunderground v.1.15,2013-06-02 20:30:00,
2013-06-02 16:35:00,45.4,41.8,30.00,West,273,9.0,14.0,87,0.00,,,0.32,Wunderground v.1.15,2013-06-02 20:35:00,
2013-06-02 16:40:00,45.4,41.2,30.00,West,280,8.0,14.0,85,0.00,,,0.32,Wunderground v.1.15,2013-06-02 20:40:00,
2013-06-02 16:45:00,45.4,41.2,30.00,West,273,8.0,14.0,85,0.00,,,0.32,Wunderground v.1.15,2013-06-02 20:45:00,
2013-06-02 16:50:00,45.6,41.0,30.00,West,275,7.0,14.0,84,0.00,,,0.32,Wunderground v.1.15,2013-06-02 20:50:00,
2013-06-02 16:55:00,45.8,41.2,30.00,WNW,288,7.0,14.0,84,0.00,,,0.32,Wunderground v.1.15,2013-06-02 20:55:00,
2013-06-02 17:05:00,46.4,41.2,30.00,West,274,7.0,14.0,82,0.00,,,0.32,Wunderground v.1.15,2013-06-02 21:05:00,
2013-06-02 17:10:00,46.2,40.7,30.01,West,264,7.0,14.0,81,0.00,,,0.32,Wunderground v.1.15,2013-06-02 21:10:00,
2013-06-02 17:15:00,46.0,41.1,30.01,West,277,8.0,14.0,83,0.00,,,0.32,Wunderground v.1.15,2013-06-02 21:15:00,
2013-06-02 17:20:00,46.1,41.2,30.01,West,269,7.0,7.0,83,0.00,,,0.32,Wunderground v.1.15,2013-06-02 21:20:00,
2013-06-02 17:25:00,46.4,41.2,30.01,West,261,7.0,8.0,82,0.00,,,0.32,Wunderground v.1.15,2013-06-02 21:25:00,
2013-06-02 17:35:00,46.1,41.2,30.01,West,265,7.0,14.0,83,0.00,,,0.32,Wunderground v.1.15,2013-06-02 21:35:00,
2013-06-02 17:40:00,46.0,41.4,30.01,West,265,7.0,7.0,84,0.00,,,0.32,Wunderground v.1.15,2013-06-02 21:40:00,
2013-06-02 17:45:00,45.6,40.4,30.02,West,277,7.0,14.0,82,0.00,,,0.32,Wunderground v.1.15,2013-06-02 21:45:00,
2013-06-02 17:50:00,45.6,41.0,30.02,West,277,7.0,7.0,84,0.00,,,0.32,Wunderground v.1.15,2013-06-02 21:50:00,
2013-06-02 17:55:00,45.7,40.8,30.01,West,278,7.0,14.0,83,0.00,,,0.32,Wunderground v.1.15,2013-06-02 21:55:00,
2013-06-02 18:00:00,45.9,40.7,30.01,West,271,7.0,14.0,82,0.00,,,0.32,Wunderground v.1.15,2013-06-02 22:00:00,
2013-06-02 18:10:00,46.2,41.3,30.02,West,269,6.0,14.0,83,0.00,,,0.32,Wunderground v.1.15,2013-06-02 22:10:00,
2013-06-02 18:15:00,46.1,40.9,30.02,WNW,292,6.0,14.0,82,0.00,,,0.32,Wunderground v.1.15,2013-06-02 22:15:00,
2013-06-02 18:20:00,46.3,41.1,30.02,WNW,284,6.0,6.0,82,0.00,,,0.32,Wunderground v.1.15,2013-06-02 22:20:00,
2013-06-02 18:25:00,46.5,41.3,30.02,WNW,287,6.0,14.0,82,0.00,,,0.32,Wunderground v.1.15,2013-06-02 22:25:00,
2013-06-02 18:30:00,46.8,41.0,30.02,WNW,296,6.0,6.0,80,0.00,,,0.32,Wunderground v.1.15,2013-06-02 22:30:00,
2013-06-02 18:40:00,47.4,41.2,30.02,West,281,6.0,14.0,79,0.00,,,0.32,Wunderground v.1.15,2013-06-02 22:40:00,
2013-06-02 18:45:00,47.3,41.1,30.02,West,277,7.0,14.0,79,0.00,,,0.32,Wunderground v.1.15,2013-06-02 22:45:00,
2013-06-02 18:50:00,47.2,40.4,30.02,WNW,300,7.0,7.0,77,0.00,,,0.32,Wunderground v.1.15,2013-06-02 22:50:00,
2013-06-02 18:55:00,47.2,41.0,30.02,WNW,286,7.0,14.0,79,0.00,,,0.32,Wunderground v.1.15,2013-06-02 22:55:00,
2013-06-02 19:00:00,47.4,41.2,30.02,West,281,7.0,7.0,79,0.00,,,0.32,Wunderground v.1.15,2013-06-02 23:00:00,
2013-06-02 19:05:00,47.4,41.2,30.02,WNW,286,6.0,14.0,79,0.00,,,0.32,Wunderground v.1.15,2013-06-02 23:05:00,
2013-06-02 19:15:00,47.4,39.5,30.03,West,271,7.0,14.0,74,0.00,,,0.32,Wunderground v.1.15,2013-06-02 23:15:00,
2013-06-02 19:20:00,47.5,40.0,30.03,WNW,283,7.0,7.0,75,0.00,,,0.32,Wunderground v.1.15,2013-06-02 23:20:00,
2013-06-02 19:25:00,47.6,40.4,30.03,West,279,7.0,14.0,76,0.00,,,0.32,Wunderground v.1.15,2013-06-02 23:25:00,
2013-06-02 19:30:00,47.4,40.2,30.03,West,277,6.0,14.0,76,0.00,,,0.32,Wunderground v.1.15,2013-06-02 23:30:00,
2013-06-02 19:35:00,47.3,39.4,30.03,West,280,6.0,14.0,74,0.00,,,0.32,Wunderground v.1.15,2013-06-02 23:35:00,
2013-06-02 19:45:00,46.9,39.7,30.04,West,281,6.0,14.0,76,0.00,,,0.32,Wunderground v.1.15,2013-06-02 23:45:00,
2013-06-02 19:50:00,46.7,38.9,30.04,West,272,5.0,14.0,74,0.00,,,0.32,Wunderground v.1.15,2013-06-02 23:50:00,
2013-06-02 19:55:00,46.7,39.5,30.04,West,271,5.0,14.0,76,0.00,,,0.32,Wunderground v.1.15,2013-06-02 23:55:00,
2013-06-02 20:00:00,46.9,39.4,30.04,West,275,5.0,14.0,75,0.00,,,0.32,Wunderground v.1.15,2013-06-03 00:00:00,
2013-06-02 20:05:00,46.9,39.4,30.04,WNW,295,5.0,14.0,75,0.00,,,0.32,Wunderground v.1.15,2013-06-03 00:05:00,
2013-06-02 20:10:00,46.9,39.4,30.03,West,277,4.0,14.0,75,0.00,,,0.32,Wunderground v.1.15,2013-06-03 00:10:00,
2013-06-02 20:20:00,46.8,39.6,30.04,West,279,3.0,3.0,76,0.00,,,0.32,Wunderground v.1.15,2013-06-03 00:20:00,
2013-06-02 20:25:00,46.7,39.5,30.04,West,274,2.0,14.0,76,0.00,,,0.32,Wunderground v.1.15,2013-06-03 00:25:00,
2013-06-02 20:30:00,46.7,39.5,30.04,West,271,2.0,14.0,76,0.00,,,0.32,Wunderground v.1.15,2013-06-03 00:30:00,
2013-06-02 20:35:00,46.5,40.0,30.04,West,271,2.0,14.0,78,0.00,,,0.32,Wunderground v.1.15,2013-06-03 00:35:00,
2013-06-02 20:40:00,46.4,40.2,30.04,West,274,2.0,2.0,79,0.00,,,0.32,Wunderground v.1.15,2013-06-03 00:40:00,
2013-06-02 20:50:00,46.4,40.6,30.04,West,275,0.0,14.0,80,0.00,,,0.32,Wunderground v.1.15,2013-06-03 00:50:00,
2013-06-02 20:55:00,45.9,39.4,30.04,WNW,288,0.0,14.0,78,0.00,,,0.32,Wunderground v.1.15,2013-06-03 00:55:00,
2013-06-02 21:00:00,45.7,38.9,30.04,NNW,330,0.0,14.0,77,0.00,,,0.32,Wunderground v.1.15,2013-06-03 01:00:00,
2013-06-02 21:05:00,45.5,38.7,30.04,NW,313,0.0,14.0,77,0.00,,,0.32,Wunderground v.1.15,2013-06-03 01:05:00,
2013-06-02 21:10:00,45.4,39.3,30.04,NW,313,0.0,14.0,79,0.00,,,0.32,Wunderground v.1.15,2013-06-03 01:10:00,
2013-06-02 21:15:00,45.0,38.9,30.04,NW,315,0.0,14.0,79,0.00,,,0.32,Wunderground v.1.15,2013-06-03 01:15:00,
2013-06-02 21:25:00,44.6,37.8,30.04,NW,315,0.0,14.0,77,0.00,,,0.32,Wunderground v.1.15,2013-06-03 01:25:00,
2013-06-02 21:30:00,44.5,38.1,30.04,NW,314,0.0,14.0,78,0.00,,,0.32,Wunderground v.1.15,2013-06-03 01:30:00,
2013-06-02 21:35:00,44.3,38.2,30.05,NW,314,0.0,14.0,79,0.00,,,0.32,Wunderground v.1.15,2013-06-03 01:35:00,
2013-06-02 21:40:00,44.2,38.7,30.05,NW,315,0.0,14.0,81,0.00,,,0.32,Wunderground v.1.15,2013-06-03 01:40:00,
2013-06-02 21:45:00,43.8,38.7,30.05,NW,315,0.0,14.0,82,0.00,,,0.32,Wunderground v.1.15,2013-06-03 01:45:00,
2013-06-02 21:55:00,43.0,38.8,30.05,NW,314,0.0,14.0,85,0.00,,,0.32,Wunderground v.1.15,2013-06-03 01:55:00,
2013-06-02 22:00:00,42.6,38.7,30.05,NW,315,0.0,14.0,86,0.00,,,0.32,Wunderground v.1.15,2013-06-03 02:00:00,
2013-06-02 22:05:00,42.3,38.7,30.06,NW,314,0.0,14.0,87,0.00,,,0.32,Wunderground v.1.15,2013-06-03 02:05:00,
2013-06-02 22:10:00,42.0,38.4,30.06,NW,314,0.0,14.0,87,0.00,,,0.32,Wunderground v.1.15,2013-06-03 02:10:00,
2013-06-02 22:15:00,41.8,38.5,30.06,NW,315,0.0,14.0,88,0.00,,,0.32,Wunderground v.1.15,2013-06-03 02:15:00,
2013-06-02 22:20:00,41.5,38.5,30.06,NW,315,0.0,14.0,89,0.00,,,0.32,Wunderground v.1.15,2013-06-03 02:20:00,
2013-06-02 22:30:00,41.1,38.1,30.06,NW,314,0.0,14.0,89,0.00,,,0.32,Wunderground v.1.15,2013-06-03 02:30:00,
2013-06-02 22:35:00,40.9,38.2,30.06,NW,315,0.0,14.0,90,0.00,,,0.32,Wunderground v.1.15,2013-06-03 02:35:00,
2013-06-02 22:40:00,40.7,38.0,30.06,NW,315,0.0,14.0,90,0.00,,,0.32,Wunderground v.1.15,2013-06-03 02:40:00,
2013-06-02 22:45:00,40.5,38.1,30.06,NW,315,0.0,14.0,91,0.00,,,0.32,Wunderground v.1.15,2013-06-03 02:45:00,
2013-06-02 22:50:00,40.3,37.9,30.06,NW,315,0.0,14.0,91,0.00,,,0.32,Wunderground v.1.15,2013-06-03 02:50:00,
2013-06-02 23:00:00,40.0,37.9,30.06,NW,315,0.0,14.0,92,0.00,,,0.32,Wunderground v.1.15,2013-06-03 03:00:00,
2013-06-02 23:05:00,39.9,37.8,30.06,NW,314,0.0,14.0,92,0.00,,,0.32,Wunderground v.1.15,2013-06-03 03:05:00,
2013-06-02 23:10:00,39.7,37.6,30.06,NW,314,0.0,14.0,92,0.00,,,0.32,Wunderground v.1.15,2013-06-03 03:10:00,
2013-06-02 23:15:00,39.5,37.4,30.06,NW,315,0.0,14.0,92,0.00,,,0.32,Wunderground v.1.15,2013-06-03 03:15:00,
2013-06-02 23:20:00,39.3,37.2,30.06,NW,315,0.0,14.0,92,0.00,,,0.32,Wunderground v.1.15,2013-06-03 03:20:00,
2013-06-02 23:25:00,39.2,37.3,30.06,NW,314,0.0,14.0,93,0.00,,,0.32,Wunderground v.1.15,2013-06-03 03:25:00,
2013-06-02 23:35:00,39.1,37.2,30.06,NW,315,0.0,14.0,93,0.00,,,0.32,Wunderground v.1.15,2013-06-03 03:35:00,
2013-06-02 23:40:00,39.1,37.2,30.06,NW,314,0.0,14.0,93,0.00,,,0.32,Wunderground v.1.15,2013-06-03 03:40:00,
2013-06-02 23:45:00,38.9,37.0,30.06,NW,314,0.0,14.0,93,0.00,,,0.32,Wunderground v.1.15,2013-06-03 03:45:00,
2013-06-02 23:50:00,38.6,36.8,30.06,NW,315,0.0,14.0,93,0.00,,,0.32,Wunderground v.1.15,2013-06-03 03:50:00,
2013-06-02 23:55:00,38.3,36.5,30.06,NW,315,0.0,14.0,93,0.00,,,0.32,Wunderground v.1.15,2013-06-03 03:55:00,